contact:dominique.lefevre@mio.osupytheas.fr, maurice.libes@osupytheas.fr, didier.mallarino@osupytheas.fr
Project:EMSO http://www.emso-fr.org/EMSO-France
Depth: 2436.0 m
Title:EMSO Ligure Ouest : Data MII capteur MICROCAT
DateTime_Computer,Latitude,Longitude,Temperature,Conductivity,Pressure,DateTime_Instrument
DateTime_Computer,Latitude,Longitude,degC,S m-1,dbar,DateTime_Instrument
2021-11-17T00:00:43Z,42.805,6.029,13.3000,4.60026,2470.287,2021-11-17T02:02:09Z
2021-11-17T00:03:46Z,42.805,6.029,13.2994,4.60019,2470.297,2021-11-17T02:05:12Z
2021-11-17T00:06:49Z,42.805,6.029,13.2999,4.60025,2470.297,2021-11-17T02:08:15Z
2021-11-17T00:09:52Z,42.805,6.029,13.2998,4.60022,2470.287,2021-11-17T02:11:18Z
2021-11-17T00:12:55Z,42.805,6.029,13.2994,4.60019,2470.264,2021-11-17T02:14:21Z
2021-11-17T00:15:58Z,42.805,6.029,13.2997,4.60025,2470.273,2021-11-17T02:17:24Z
2021-11-17T00:19:01Z,42.805,6.029,13.2996,4.60021,2470.32,2021-11-17T02:20:28Z
2021-11-17T00:22:05Z,42.805,6.029,13.2998,4.60024,2470.297,2021-11-17T02:23:31Z
2021-11-17T00:25:08Z,42.805,6.029,13.2997,4.60019,2470.334,2021-11-17T02:26:34Z
2021-11-17T00:28:11Z,42.805,6.029,13.2998,4.60025,2470.31,2021-11-17T02:29:37Z
2021-11-17T00:31:14Z,42.805,6.029,13.2993,4.60023,2470.297,2021-11-17T02:32:40Z
2021-11-17T00:34:17Z,42.805,6.029,13.2998,4.60029,2470.334,2021-11-17T02:35:43Z
2021-11-17T00:37:20Z,42.805,6.029,13.2996,4.60024,2470.297,2021-11-17T02:38:46Z
2021-11-17T00:40:23Z,42.805,6.029,13.2996,4.60026,2470.287,2021-11-17T02:41:49Z
2021-11-17T00:43:26Z,42.805,6.029,13.3002,4.60034,2470.273,2021-11-17T02:44:53Z
2021-11-17T00:46:29Z,42.805,6.029,13.2997,4.60021,2470.32,2021-11-17T02:47:56Z
2021-11-17T00:49:33Z,42.805,6.029,13.2994,4.60020,2470.297,2021-11-17T02:50:59Z
2021-11-17T00:52:36Z,42.805,6.029,13.2996,4.60021,2470.334,2021-11-17T02:54:02Z
2021-11-17T00:55:39Z,42.805,6.029,13.2997,4.60026,2470.31,2021-11-17T02:57:05Z
2021-11-17T00:58:42Z,42.805,6.029,13.3000,4.60022,2470.297,2021-11-17T03:00:08Z
2021-11-17T01:01:45Z,42.805,6.029,13.2997,4.60021,2470.32,2021-11-17T03:03:11Z
2021-11-17T01:04:48Z,42.805,6.029,13.2996,4.60020,2470.287,2021-11-17T03:06:14Z
2021-11-17T01:07:51Z,42.805,6.029,13.2993,4.60021,2470.32,2021-11-17T03:09:17Z
2021-11-17T01:10:54Z,42.805,6.029,13.3000,4.60024,2470.297,2021-11-17T03:12:21Z
2021-11-17T01:13:58Z,42.805,6.029,13.3000,4.60024,2470.273,2021-11-17T03:15:24Z
2021-11-17T01:17:01Z,42.805,6.029,13.3000,4.60022,2470.32,2021-11-17T03:18:27Z
2021-11-17T01:20:04Z,42.805,6.029,13.2999,4.60031,2470.297,2021-11-17T03:21:30Z
2021-11-17T01:23:07Z,42.805,6.029,13.2995,4.60031,2470.31,2021-11-17T03:24:33Z
2021-11-17T01:26:10Z,42.805,6.029,13.2996,4.60024,2470.31,2021-11-17T03:27:36Z
2021-11-17T01:29:13Z,42.805,6.029,13.2996,4.60020,2470.297,2021-11-17T03:30:39Z
2021-11-17T01:32:16Z,42.805,6.029,13.2996,4.60020,2470.334,2021-11-17T03:33:42Z
2021-11-17T01:35:19Z,42.805,6.029,13.3001,4.60021,2470.297,2021-11-17T03:36:46Z
2021-11-17T01:38:23Z,42.805,6.029,13.2992,4.60031,2470.32,2021-11-17T03:39:49Z
2021-11-17T01:41:26Z,42.805,6.029,13.2996,4.60029,2470.31,2021-11-17T03:42:52Z
2021-11-17T01:44:29Z,42.805,6.029,13.3000,4.60025,2470.334,2021-11-17T03:45:55Z
2021-11-17T01:47:32Z,42.805,6.029,13.2996,4.60031,2470.31,2021-11-17T03:48:58Z
2021-11-17T01:50:35Z,42.805,6.029,13.3001,4.60034,2470.297,2021-11-17T03:52:01Z
2021-11-17T01:53:38Z,42.805,6.029,13.2995,4.60033,2470.297,2021-11-17T03:55:04Z
2021-11-17T01:56:41Z,42.805,6.029,13.2998,4.60032,2470.297,2021-11-17T03:58:07Z
2021-11-17T01:59:44Z,42.805,6.029,13.2995,4.60031,2470.32,2021-11-17T04:01:11Z
2021-11-17T02:02:48Z,42.805,6.029,13.2996,4.60021,2470.32,2021-11-17T04:04:14Z
2021-11-17T02:05:51Z,42.805,6.029,13.2998,4.60036,2470.343,2021-11-17T04:07:17Z
2021-11-17T02:08:54Z,42.805,6.029,13.3000,4.60031,2470.334,2021-11-17T04:10:20Z
2021-11-17T02:11:57Z,42.805,6.029,13.3000,4.60026,2470.31,2021-11-17T04:13:23Z
2021-11-17T02:15:00Z,42.805,6.029,13.2996,4.60026,2470.297,2021-11-17T04:16:26Z
2021-11-17T02:18:03Z,42.805,6.029,13.3000,4.60031,2470.334,2021-11-17T04:19:29Z
2021-11-17T02:21:06Z,42.805,6.029,13.3000,4.60039,2470.357,2021-11-17T04:22:32Z
2021-11-17T02:24:09Z,42.805,6.029,13.3000,4.60027,2470.343,2021-11-17T04:25:36Z
2021-11-17T02:27:13Z,42.805,6.029,13.2993,4.60021,2470.357,2021-11-17T04:28:39Z
2021-11-17T02:30:16Z,42.805,6.029,13.2997,4.60020,2470.343,2021-11-17T04:31:42Z
2021-11-17T02:33:19Z,42.805,6.029,13.2998,4.60021,2470.343,2021-11-17T04:34:45Z
2021-11-17T02:36:22Z,42.805,6.029,13.2996,4.60023,2470.366,2021-11-17T04:37:48Z
2021-11-17T02:39:25Z,42.805,6.029,13.3001,4.60026,2470.366,2021-11-17T04:40:51Z
2021-11-17T02:42:28Z,42.805,6.029,13.3000,4.60025,2470.343,2021-11-17T04:43:54Z
2021-11-17T02:45:31Z,42.805,6.029,13.2993,4.60024,2470.334,2021-11-17T04:46:57Z
2021-11-17T02:48:34Z,42.805,6.029,13.2999,4.60025,2470.343,2021-11-17T04:50:00Z
2021-11-17T02:51:37Z,42.805,6.029,13.3000,4.60027,2470.38,2021-11-17T04:53:04Z
2021-11-17T02:54:41Z,42.805,6.029,13.2997,4.60024,2470.32,2021-11-17T04:56:07Z
2021-11-17T02:57:44Z,42.805,6.029,13.2998,4.60023,2470.32,2021-11-17T04:59:10Z
2021-11-17T03:00:47Z,42.805,6.029,13.2993,4.60027,2470.38,2021-11-17T05:02:13Z
2021-11-17T03:03:50Z,42.805,6.029,13.3002,4.60033,2470.366,2021-11-17T05:05:16Z
2021-11-17T03:06:53Z,42.805,6.029,13.2998,4.60032,2470.366,2021-11-17T05:08:19Z
2021-11-17T03:09:56Z,42.805,6.029,13.3007,4.60046,2470.366,2021-11-17T05:11:22Z
2021-11-17T03:12:59Z,42.805,6.029,13.3002,4.60044,2470.366,2021-11-17T05:14:25Z
2021-11-17T03:16:02Z,42.805,6.029,13.3004,4.60029,2470.366,2021-11-17T05:17:29Z
2021-11-17T03:19:06Z,42.805,6.029,13.3002,4.60033,2470.38,2021-11-17T05:20:32Z
2021-11-17T03:22:09Z,42.805,6.029,13.2999,4.60026,2470.38,2021-11-17T05:23:35Z
2021-11-17T03:25:12Z,42.805,6.029,13.3004,4.60028,2470.404,2021-11-17T05:26:38Z
2021-11-17T03:28:15Z,42.805,6.029,13.2999,4.60027,2470.404,2021-11-17T05:29:41Z
2021-11-17T03:31:18Z,42.805,6.029,13.3006,4.60033,2470.38,2021-11-17T05:32:44Z
2021-11-17T03:34:21Z,42.805,6.029,13.3000,4.60029,2470.366,2021-11-17T05:35:47Z
2021-11-17T03:37:24Z,42.805,6.029,13.3002,4.60025,2470.404,2021-11-17T05:38:50Z
2021-11-17T03:40:27Z,42.805,6.029,13.3000,4.60035,2470.39,2021-11-17T05:41:54Z
2021-11-17T03:43:31Z,42.805,6.029,13.2999,4.60032,2470.39,2021-11-17T05:44:57Z
2021-11-17T03:46:34Z,42.805,6.029,13.3000,4.60034,2470.427,2021-11-17T05:48:00Z
2021-11-17T03:49:37Z,42.805,6.029,13.3002,4.60038,2470.404,2021-11-17T05:51:03Z
2021-11-17T03:52:40Z,42.805,6.029,13.2997,4.60026,2470.39,2021-11-17T05:54:06Z
2021-11-17T03:55:43Z,42.805,6.029,13.3000,4.60037,2470.413,2021-11-17T05:57:09Z
2021-11-17T03:58:46Z,42.805,6.029,13.2998,4.60037,2470.413,2021-11-17T06:00:12Z
2021-11-17T04:01:49Z,42.805,6.029,13.3007,4.60036,2470.427,2021-11-17T06:03:15Z
2021-11-17T04:04:52Z,42.805,6.029,13.3004,4.60029,2470.413,2021-11-17T06:06:19Z
2021-11-17T04:07:56Z,42.805,6.029,13.3003,4.60031,2470.404,2021-11-17T06:09:22Z
2021-11-17T04:10:59Z,42.805,6.029,13.3004,4.60039,2470.437,2021-11-17T06:12:25Z
2021-11-17T04:14:02Z,42.805,6.029,13.3000,4.60031,2470.404,2021-11-17T06:15:28Z
2021-11-17T04:17:05Z,42.805,6.029,13.3000,4.60049,2470.413,2021-11-17T06:18:31Z
2021-11-17T04:20:08Z,42.805,6.029,13.2996,4.60044,2470.413,2021-11-17T06:21:34Z
2021-11-17T04:23:11Z,42.805,6.029,13.3000,4.60038,2470.413,2021-11-17T06:24:37Z
2021-11-17T04:26:14Z,42.805,6.029,13.2996,4.60032,2470.427,2021-11-17T06:27:40Z
2021-11-17T04:29:17Z,42.805,6.029,13.3000,4.60041,2470.45,2021-11-17T06:30:44Z
2021-11-17T04:32:21Z,42.805,6.029,13.3000,4.60037,2470.437,2021-11-17T06:33:47Z
2021-11-17T04:35:24Z,42.805,6.029,13.2997,4.60031,2470.437,2021-11-17T06:36:50Z
2021-11-17T04:38:27Z,42.805,6.029,13.3004,4.60046,2470.427,2021-11-17T06:39:53Z
2021-11-17T04:41:30Z,42.805,6.029,13.3000,4.60044,2470.46,2021-11-17T06:42:56Z
2021-11-17T04:44:33Z,42.805,6.029,13.3001,4.60033,2470.423,2021-11-17T06:45:59Z
2021-11-17T04:47:36Z,42.805,6.029,13.3006,4.60032,2470.437,2021-11-17T06:49:02Z
2021-11-17T04:50:39Z,42.805,6.029,13.3004,4.60045,2470.437,2021-11-17T06:52:05Z
2021-11-17T04:53:42Z,42.805,6.029,13.3006,4.60041,2470.437,2021-11-17T06:55:09Z
2021-11-17T04:56:46Z,42.805,6.029,13.3003,4.60042,2470.45,2021-11-17T06:58:12Z
2021-11-17T04:59:49Z,42.805,6.029,13.2996,4.60031,2470.46,2021-11-17T07:01:15Z
2021-11-17T05:02:52Z,42.805,6.029,13.3006,4.60048,2470.437,2021-11-17T07:04:18Z
2021-11-17T05:05:55Z,42.805,6.029,13.3002,4.60038,2470.437,2021-11-17T07:07:21Z
2021-11-17T05:08:58Z,42.805,6.029,13.2998,4.60029,2470.46,2021-11-17T07:10:24Z
2021-11-17T05:12:01Z,42.805,6.029,13.3002,4.60033,2470.46,2021-11-17T07:13:27Z
2021-11-17T05:15:04Z,42.805,6.029,13.2998,4.60040,2470.45,2021-11-17T07:16:30Z
2021-11-17T05:18:07Z,42.805,6.029,13.2999,4.60033,2470.474,2021-11-17T07:19:33Z
2021-11-17T05:21:10Z,42.805,6.029,13.2997,4.60033,2470.446,2021-11-17T07:22:37Z
2021-11-17T05:24:14Z,42.805,6.029,13.2994,4.60024,2470.474,2021-11-17T07:25:40Z
2021-11-17T05:27:17Z,42.805,6.029,13.2997,4.60035,2470.46,2021-11-17T07:28:43Z
2021-11-17T05:30:20Z,42.805,6.029,13.3001,4.60024,2470.45,2021-11-17T07:31:46Z
2021-11-17T05:33:23Z,42.805,6.029,13.3001,4.60032,2470.437,2021-11-17T07:34:49Z
2021-11-17T05:36:26Z,42.805,6.029,13.2997,4.60034,2470.437,2021-11-17T07:37:52Z
2021-11-17T05:39:29Z,42.805,6.029,13.3006,4.60042,2470.446,2021-11-17T07:40:55Z
2021-11-17T05:42:32Z,42.805,6.029,13.3000,4.60040,2470.483,2021-11-17T07:43:59Z
2021-11-17T05:45:36Z,42.805,6.029,13.2996,4.60032,2470.474,2021-11-17T07:47:02Z
2021-11-17T05:48:39Z,42.805,6.029,13.3000,4.60029,2470.46,2021-11-17T07:50:05Z
2021-11-17T05:51:42Z,42.805,6.029,13.2998,4.60037,2470.483,2021-11-17T07:53:08Z
2021-11-17T05:54:45Z,42.805,6.029,13.3000,4.60029,2470.511,2021-11-17T07:56:11Z
2021-11-17T05:57:48Z,42.805,6.029,13.3001,4.60040,2470.437,2021-11-17T07:59:14Z
2021-11-17T06:00:51Z,42.805,6.029,13.2999,4.60034,2470.46,2021-11-17T08:02:17Z
2021-11-17T06:03:54Z,42.805,6.029,13.2996,4.60038,2470.46,2021-11-17T08:05:20Z
2021-11-17T06:06:57Z,42.805,6.029,13.3000,4.60031,2470.474,2021-11-17T08:08:23Z
2021-11-17T06:10:00Z,42.805,6.029,13.3002,4.60039,2470.474,2021-11-17T08:11:27Z
2021-11-17T06:13:04Z,42.805,6.029,13.2996,4.60033,2470.483,2021-11-17T08:14:30Z
2021-11-17T06:16:07Z,42.805,6.029,13.3000,4.60045,2470.437,2021-11-17T08:17:33Z
2021-11-17T06:19:10Z,42.805,6.029,13.3000,4.60040,2470.483,2021-11-17T08:20:36Z
2021-11-17T06:22:13Z,42.805,6.029,13.2998,4.60036,2470.497,2021-11-17T08:23:39Z
2021-11-17T06:25:16Z,42.805,6.029,13.2997,4.60031,2470.474,2021-11-17T08:26:42Z
2021-11-17T06:28:19Z,42.805,6.029,13.2999,4.60028,2470.45,2021-11-17T08:29:45Z
2021-11-17T06:31:22Z,42.805,6.029,13.2999,4.60029,2470.474,2021-11-17T08:32:48Z
2021-11-17T06:34:25Z,42.805,6.029,13.3000,4.60031,2470.483,2021-11-17T08:35:52Z
2021-11-17T06:37:29Z,42.805,6.029,13.2999,4.60033,2470.437,2021-11-17T08:38:55Z
2021-11-17T06:40:32Z,42.805,6.029,13.2996,4.60028,2470.46,2021-11-17T08:41:58Z
2021-11-17T06:43:35Z,42.805,6.029,13.3000,4.60032,2470.46,2021-11-17T08:45:01Z
2021-11-17T06:46:38Z,42.805,6.029,13.3002,4.60033,2470.437,2021-11-17T08:48:04Z
2021-11-17T06:49:41Z,42.805,6.029,13.3001,4.60032,2470.46,2021-11-17T08:51:07Z
2021-11-17T06:52:44Z,42.805,6.029,13.2997,4.60020,2470.437,2021-11-17T08:54:10Z
2021-11-17T06:55:47Z,42.805,6.029,13.3001,4.60036,2470.45,2021-11-17T08:57:13Z
2021-11-17T06:58:50Z,42.805,6.029,13.2997,4.60029,2470.46,2021-11-17T09:00:17Z
2021-11-17T07:01:54Z,42.805,6.029,13.3000,4.60021,2470.483,2021-11-17T09:03:20Z
2021-11-17T07:04:57Z,42.805,6.029,13.2999,4.60034,2470.483,2021-11-17T09:06:23Z
2021-11-17T07:08:00Z,42.805,6.029,13.2998,4.60033,2470.45,2021-11-17T09:09:26Z
2021-11-17T07:11:03Z,42.805,6.029,13.2996,4.60025,2470.46,2021-11-17T09:12:29Z
2021-11-17T07:14:06Z,42.805,6.029,13.2995,4.60027,2470.474,2021-11-17T09:15:32Z
2021-11-17T07:17:09Z,42.805,6.029,13.2998,4.60021,2470.437,2021-11-17T09:18:35Z
2021-11-17T07:20:12Z,42.805,6.029,13.3002,4.60019,2470.497,2021-11-17T09:21:38Z
2021-11-17T07:23:15Z,42.805,6.029,13.2998,4.60036,2470.474,2021-11-17T09:24:42Z
2021-11-17T07:26:19Z,42.805,6.029,13.3001,4.60034,2470.45,2021-11-17T09:27:45Z
2021-11-17T07:29:22Z,42.805,6.029,13.3004,4.60042,2470.46,2021-11-17T09:30:48Z
2021-11-17T07:32:25Z,42.805,6.029,13.3005,4.60029,2470.437,2021-11-17T09:33:51Z
2021-11-17T07:35:28Z,42.805,6.029,13.2999,4.60029,2470.45,2021-11-17T09:36:54Z
2021-11-17T07:38:31Z,42.805,6.029,13.2999,4.60036,2470.474,2021-11-17T09:39:57Z
2021-11-17T07:41:34Z,42.805,6.029,13.2996,4.60034,2470.437,2021-11-17T09:43:00Z
2021-11-17T07:44:37Z,42.805,6.029,13.2998,4.60033,2470.483,2021-11-17T09:46:03Z
2021-11-17T07:47:40Z,42.805,6.029,13.2998,4.60024,2470.45,2021-11-17T09:49:07Z
2021-11-17T07:50:44Z,42.805,6.029,13.2996,4.60021,2470.427,2021-11-17T09:52:10Z
2021-11-17T07:53:47Z,42.805,6.029,13.2998,4.60034,2470.46,2021-11-17T09:55:13Z
2021-11-17T07:56:50Z,42.805,6.029,13.3000,4.60031,2470.45,2021-11-17T09:58:16Z
2021-11-17T07:59:53Z,42.805,6.029,13.3002,4.60033,2470.483,2021-11-17T10:01:19Z
2021-11-17T08:02:56Z,42.805,6.029,13.3002,4.60033,2470.413,2021-11-17T10:04:22Z
2021-11-17T08:05:59Z,42.805,6.029,13.2999,4.60033,2470.45,2021-11-17T10:07:25Z
2021-11-17T08:09:02Z,42.805,6.029,13.3001,4.60033,2470.45,2021-11-17T10:10:28Z
2021-11-17T08:12:05Z,42.805,6.029,13.2996,4.60027,2470.437,2021-11-17T10:13:32Z
2021-11-17T08:15:09Z,42.805,6.029,13.3003,4.60030,2470.399,2021-11-17T10:16:35Z
2021-11-17T08:18:12Z,42.805,6.029,13.2994,4.60027,2470.427,2021-11-17T10:19:38Z
2021-11-17T08:21:15Z,42.805,6.029,13.2998,4.60019,2470.474,2021-11-17T10:22:41Z
2021-11-17T08:24:18Z,42.805,6.029,13.2996,4.60029,2470.413,2021-11-17T10:25:44Z
2021-11-17T08:27:21Z,42.805,6.029,13.3000,4.60042,2470.39,2021-11-17T10:28:47Z
2021-11-17T08:30:24Z,42.805,6.029,13.3000,4.60028,2470.437,2021-11-17T10:31:50Z
2021-11-17T08:33:27Z,42.805,6.029,13.2999,4.60026,2470.46,2021-11-17T10:34:53Z
2021-11-17T08:36:30Z,42.805,6.029,13.3005,4.60029,2470.427,2021-11-17T10:37:57Z
